Regional Weather Roundup
Issued by NWS

Home | Current Version | Previous Version | Graphics & Text | Print | Product List | Glossary On
Versions: 1 2 3 4 5 6 7 8 9 10 11 12 13 14 15 16 17 18 19 20 21 22 23 24 25 26 27 28 29 30 31 32 33 34 35 36 37 38 39 40 41 42 43 44 45 46 47 48 49 50
000
ASUS43 KLOT 200508
RWRIL

ILLINOIS REGIONAL WEATHER ROUNDUP
NATIONAL WEATHER SERVICE CHICAGO/ROMEOVILLE IL
1100 PM CST MON FEB 19 2018

NOTE: "FAIR" INDICATES FEW OR NO CLOUDS BELOW 12,000 FEET WITH NO
SIGNIFICANT WEATHER AND/OR OBSTRUCTIONS TO VISIBILITY.

* THESE STATIONS ARE NOT UNDER NWS QUALITY CONTROL. THEY ALSO MAY NOT
  REPORT WEATHER SUCH AS PRECIPITATION OR FOG.

ILZ001-002-007-009-015-016-024-200600-
NORTHWEST ILLINOIS

CITY           SKY/WX    TMP DP  RH WIND       PRES   REMARKS
MOLINE         RAIN      43  42  97 W7        29.79S FOG
STERLING*        N/A    N/A N/A N/A MISG        N/A
SAVANNA*       RAIN      44  44 100 W3        29.79R
$$

ILZ003-004-008-010-011-017-018-200600-
NORTH CENTRAL ILLINOIS

CITY           SKY/WX    TMP DP  RH WIND       PRES   REMARKS
ROCKFORD       LGT RAIN  49  49 100 S13       29.79R VSB 1/8
FREEPORT*      FOG       46  46 100 SW6       29.79R VSB 3/4
ROCHELLE*      LGT RAIN  51  51 100 S16       29.79S
DE KALB*       RAIN      48  48 100 S10       29.81R VSB 1/4
PERU*          RAIN      58  56  95 SW17      29.81R
$$

ILZ005-006-012>014-019>023-200600-
NORTHEAST ILLINOIS

CITY           SKY/WX    TMP DP  RH WIND       PRES   REMARKS
CHICAGO-OHARE  LGT RAIN  59  56  89 S16       29.81S
CHICAGO-MIDWAY LGT RAIN  60  58  92 S12       29.82S
AURORA         RAIN      52  52 100 S12       29.81S VSB 1/2
LANSING*       HVY RAIN  58  58 100 S13       29.86F
JOLIET*        RAIN      60  60  98 S14       29.83R
WAUKEGAN       LGT RAIN  57  56  96 SW18G26   29.77F
DUPAGE AIRPORT CLOUDY    56  56 100 S14G24    29.79F FOG
KANKAKEE*      RAIN      59  58  97 S18G29    29.84S
WHEELING       LGT RAIN  60  58  92 S16       29.82S
MORRIS*        RAIN      58  57  96 SW22      29.84R
ROMEOVILLE*    RAIN      56  56  97 SW14      29.83R
NORTHERLY ISL    N/A     59  56  89 S21         N/A
$$

LMZ740>746-200600-
SOUTHERN LAKE MICHIGAN

STATION/POSITION SKY/WX   TEMP    WIND        PRES    VSBY  WAVE
                          AIR SEA DIR/SP/G                  HT/PER
                          (F)     (DEG/KT/KT) (MB)    (MI)  (FT/S)
HARRISON CRIB              56     200/ 27/ 28   N/A
BURNHAM HARBOR             59     200/ 11/ 21   N/A
CALUMET HARBOR             59     170/ 10/ 16 1009.7F
BURNS HARBOR               58     190/ 14/ 19 1011.9S
MICHIGAN CITY              59     180/ 17/ 20   N/A
$$

ILZ025>027-034>036-040-047-049-050-058-095>099-200600-
WEST-CENTRAL ILLINOIS

CITY           SKY/WX    TMP DP  RH WIND       PRES   REMARKS
QUINCY         LGT RAIN  53  53 100 SW5       29.83R FOG
GALESBURG*     LGT RAIN  45  45 100 NW6       29.82R
MACOMB*        RAIN      50  49  97 NW10      29.83R
JACKSONVILLE*  CLOUDY    62  58  88 S17G26    29.84R
PITTSFIELD*    RAIN      62  59  93 S13G25    29.84R
$$

ILZ028>032-037-038-041>044-048-051>054-059>061-200600-
CENTRAL ILLINOIS

CITY           SKY/WX    TMP DP  RH WIND       PRES   REMARKS
PONTIAC        RAIN      62  62  98 S26G35    29.84S
BLOOMINGTON    LGT RAIN  62  60  93 S32G41    29.83R
DECATUR        LGT RAIN  64  61  90 S23G33    29.89R
PEORIA         LGT RAIN  61  58  90 SW16G28   29.80R
LACON*         DRIZZLE   57  57 100 SE5       29.80F
LINCOLN*       RAIN      63  62  97 S16G29    29.84F
SPRINGFIELD    RAIN      63  61  93 S26G33    29.84F
TAYLORVILLE    LGT RAIN  63  61  94 S18G26    29.90R
$$

ILZ033-039-045-046-055>057-062-063-200600-
EAST-CENTRAL ILLINOIS

CITY           SKY/WX    TMP DP  RH WIND       PRES   REMARKS
CHAMPAIGN      CLOUDY    61  58  90 S25       29.89R
DANVILLE*      CLOUDY    62  56  79 S23G35    29.87S
RANTOUL*       LGT RAIN  63  60  90 S17G25    29.89R
MATTOON        CLOUDY    62  56  80 S14G25    29.93R
PARIS*         FAIR      62  57  83 S25G35    29.94F
$$

ILZ079-100>102-200600-
SOUTHWEST ILLINOIS

CITY           SKY/WX    TMP DP  RH WIND       PRES   REMARKS
ALTON          DRIZZLE   65  62  90 SW8G22    29.92R
BELLEVILLE     MOCLDY    66  60  80 S15       29.91R
CAHOKIA*         N/A    N/A N/A N/A MISG      29.89S
SPARTA*        MOCLDY    66  60  80 S12G18    29.96S
$$

ILZ064>066-069>071-074>076-080>082-084>086-088>090-092>094-200600-
SOUTH-CENTRAL ILLINOIS

CITY           SKY/WX    TMP DP  RH WIND       PRES   REMARKS
CARBONDALE     FAIR      66  58  75 S18G31    29.97R
CAIRO*         FAIR      65  60  82 S14G21    30.01S
EFFINGHAM*     CLOUDY    66  58  77 SE13G20   29.96S
MARION         FAIR      66  58  77 S17G23    29.99S
MT. VERNON     MOCLDY    65  57  75 S10       29.98F
CENTRALIA*     CLOUDY    66  59  77 S15       29.95S
SALEM*         CLOUDY    68  57  68 S16G24    29.95F
METROPOLIS*    FAIR      67  60  77 S7        30.03S
$$

ILZ067-068-072-073-078-083-087-091-200600-
SOUTHEAST ILLINOIS

CITY           SKY/WX    TMP DP  RH WIND       PRES   REMARKS
LAWRENCEVILLE  MOCLDY    64  57  78 S16       30.01R
FLORA*         CLOUDY    64  57  77 S12       29.98F
FAIRFIELD*     FAIR      62  57  84 S6        29.99S
HARRISBURG*    FAIR      67  60  78 S15G22    30.00S
ROBINSON*      FAIR      64  57  78 S16G22    30.00R
CARMI*         FAIR      64  59  82 S16       30.00F
$$

ABBREVIATIONS USED IN REMARKS
   TC - TEMPERATURE IN CELSIUS
  WCI - WIND CHILL INDEX
   HX - HEAT INDEX
  VSB - VISIBILITY
$$





USA.gov is the U.S. government's official web portal to all federal, state and local government web resources and services.